Regional Weather Roundup
Issued by NWS

Home | Current Version | Previous Version | Text Only | Print | Product List | Glossary Off
Versions: 1 2 3 4 5 6 7 8 9 10 11 12 13 14 15 16 17 18 19 20 21 22 23 24 25 26 27 28 29 30 31 32 33 34 35 36 37 38 39 40 41 42 43 44 45 46 47 48 49 50

000
ASUS45 KCYS 092210
RWRWY

WYOMING REGIONAL WEATHER ROUNDUP
NATIONAL WEATHER SERVICE CHEYENNE WY
300 PM MST TUE FEB 09 2016

NOTE:  "FAIR" INDICATES FEW OR NO CLOUDS BELOW 12,000 FEET
WITH NO SIGNIFICANT WEATHER AND/OR OBSTRUCTIONS TO VISIBILITY.

WYZ001-092300-
YELLOWSTONE NATIONAL PARK

CITY           SKY/WX    TMP DP  RH WIND       PRES   REMARKS
LK YELLOWSTONE   N/A     34  20  56 CALM      30.47F
W YELLOWSTONE  NOT AVBL

$$
WYZ002>013-054>058-071-098>099-092300-
NORTHERN WYOMING

CITY           SKY/WX    TMP DP  RH WIND       PRES   REMARKS
JACKSON        SUNNY     25  21  86 CALM      30.49F
CODY           FAIR      55  27  33 NE12      30.25F
GREYBULL       FAIR      48  26  42 S6        30.27F
WORLAND        FAIR      47  27  45 N3        30.27F
SHERIDAN       FAIR      59  26  28 NW17      30.19F
BUFFALO        FAIR      56  30  37 VRB5      30.22F
GILLETTE       FAIR      52  30  43 NW17      30.19S
HULETT         FAIR      50  30  46 W12       30.16F
NEWCASTLE      FAIR      48  27  43 NW18G25   30.19S

$$
WYZ014>020-022>026-101>103-092300-
CENTRAL WYOMING

CITY           SKY/WX    TMP DP  RH WIND       PRES   REMARKS
BIG PINEY      FAIR      46  27  47 CALM      30.41S
PINEDALE       FAIR      43  23  45 NW17      30.39F
DUBOIS         FAIR      54   9  16 MISG      30.35S
LANDER         FAIR      38  20  48 CALM      30.31F
RIVERTON       FAIR      37  23  56 SE5       30.33F WCI  33
CASPER         FAIR      38  25  59 SW18G26   30.29F WCI  28
DOUGLAS          N/A     47  28  47 NW14G24     N/A

$$
WYZ021-027>030-104>119-092300-
SOUTHERN WYOMING

CITY           SKY/WX    TMP DP  RH WIND       PRES   REMARKS
EVANSTON       FAIR      36  23  59 S3        30.47F
KEMMERER       FAIR      34  27  75 W10       30.45S WCI  26
FORT BRIDGER   CLEAR     41  28  60 W21G26    30.46F
ROCK SPRINGS   FAIR      39  28  64 W17       30.41F WCI  30
DIXON          FAIR      33  23  65 CALM      30.48F
RAWLINS        FAIR      37  23  56 VRB7      30.40S WCI  32
SARATOGA       FAIR      34  27  75 S10       30.41F WCI  26
LARAMIE        FAIR      44  22  41 NW16G23   30.32S
CHEYENNE       FAIR      46  23  40 NW18G30   30.27S
TORRINGTON     FAIR      52  28  39 NW16G26   30.21F
PINE BLUFFS    FAIR      46  28  49 NW20      30.26S

$$



USA.gov is the U.S. government's official web portal to all federal, state and local government web resources and services.